QPF
0.00 0.00 0.00 0.00 0.00 0.00 0.00 0.00 0.00 0.00 0.00 0.00 0.00 0.00 0.00 0.00 0.00 0.00 0.00 0.00 0.00 0.00 0.00 0.00 0.00 0.01 0.02 0.02 0.01 0.01 0.00 0.00 0.00 0.00 0.00 0.00 0.00 0.00 0.00 0.00 0.00 0.00 0.00 0.00 0.00 0.00 0.00 0.00 0.00
0.00 0.00 0.00 0.00 0.00 0.00 0.00 0.00 0.00 0.00 0.00 0.00 0.00 0.00 0.00 0.00 0.00 0.00 0.00 0.00 0.00 0.00 0.00 0.00 0.00 0.01 0.01 0.02 0.01 0.00 0.00 0.00 0.00 0.00 0.00 0.00 0.00 0.01 0.01 0.00 0.00 0.01 0.00 0.00 0.00 0.00 0.00 0.00 0.00
0.00 0.00 0.00 0.00 0.00 0.00 0.00 0.00 0.00 0.00 0.00 0.00 0.00 0.00 0.00 0.00 0.00 0.00 0.00 0.00 0.00 0.00 0.00 0.00 0.00 0.00 0.01 0.01 0.01 0.01 0.00 0.00 0.00 0.00 0.00 0.01 0.01 0.01 0.01 0.01 0.01 0.01 0.00 0.00 0.00 0.00 0.00 0.00 0.00
0.00 0.00 0.00 0.00 0.00 0.00 0.00 0.00 0.00 0.00 0.00 0.00 0.00 0.00 0.00 0.00 0.00 0.00 0.00 0.00 0.00 0.00 0.00 0.00 0.00 0.00 0.01 0.01 0.01 0.00 0.00 0.00 0.00 0.00 0.01 0.01 0.01 0.01 0.01 0.02 0.01 0.01 0.00 0.00 0.00 0.00 0.00 0.00 0.00
0.00 0.00 0.00 0.00 0.00 0.00 0.00 0.00 0.00 0.00 0.00 0.00 0.00 0.00 0.00 0.00 0.00 0.00 0.00 0.00 0.00 0.00 0.00 0.00 0.00 0.00 0.00 0.00 0.00 0.00 0.00 0.00 0.00 0.01 0.01 0.01 0.01 0.01 0.02 0.02 0.01 0.01 0.00 0.00 0.00 0.00 0.00 0.00 0.00
0.00 0.00 0.00 0.00 0.00 0.00 0.00 0.00 0.00 0.00 0.00 0.00 0.00 0.00 0.00 0.00 0.00 0.00 0.00 0.00 0.00 0.00 0.00 0.00 0.01 0.00 0.01 0.01 0.00 0.00 0.00 0.00 0.01 0.01 0.01 0.01 0.01 0.01 0.01 0.01 0.01 0.01 0.00 0.00 0.00 0.00 0.00 0.00 0.00
0.00 0.00 0.00 0.00 0.01 0.00 0.00 0.00 0.00 0.00 0.00 0.00 0.00 0.00 0.00 0.00 0.00 0.00 0.00 0.00 0.00 0.00 0.00 0.00 0.00 0.00 0.01 0.02 0.01 0.01 0.00 0.00 0.01 0.01 0.01 0.01 0.01 0.01 0.01 0.01 0.01 0.01 0.00 0.00 0.00 0.00 0.00 0.00 0.00
0.00 0.00 0.00 0.00 0.01 0.01 0.01 0.00 0.00 0.00 0.00 0.00 0.00 0.00 0.00 0.00 0.00 0.00 0.00 0.00 0.00 0.00 0.00 0.00 0.00 0.00 0.00 0.00 0.02 0.02 0.01 0.01 0.01 0.01 0.01 0.01 0.00 0.00 0.00 0.00 0.01 0.01 0.00 0.00 0.00 0.00 0.00 0.00 0.00
0.00 0.00 0.00 0.00 0.00 0.01 0.01 0.01 0.00 0.00 0.00 0.00 0.00 0.00 0.00 0.00 0.00 0.00 0.00 0.00 0.00 0.00 0.00 0.00 0.00 0.00 0.00 0.00 0.01 0.01 0.01 0.01 0.01 0.00 0.00 0.00 0.00 0.00 0.00 0.00 0.00 0.00 0.01 0.00 0.00 0.00 0.00 0.00 0.00
0.00 0.00 0.00 0.00 0.00 0.00 0.01 0.01 0.00 0.00 0.00 0.00 0.00 0.00 0.00 0.00 0.00 0.00 0.00 0.00 0.00 0.00 0.00 0.00 0.00 0.00 0.00 0.01 0.00 0.01 0.01 0.00 0.00 0.01 0.00 0.00 0.00 0.00 0.00 0.00 0.00 0.01 0.01 0.01 0.00 0.00 0.00 0.00 0.00
0.00 0.00 0.00 0.00 0.00 0.00 0.00 0.00 0.00 0.00 0.00 0.00 0.00 0.00 0.00 0.00 0.00 0.00 0.00 0.00 0.00 0.00 0.00 0.00 0.00 0.00 0.00 0.01 0.01 0.01 0.01 0.01 0.01 0.01 0.01 0.01 0.00 0.00 0.00 0.00 0.00 0.01 0.01 0.01 0.00 0.00 0.00 0.00 0.00
0.00 0.00 0.00 0.00 0.00 0.00 0.00 0.00 0.00 0.00 0.00 0.00 0.00 0.00 0.00 0.00 0.00 0.00 0.00 0.00 0.00 0.00 0.00 0.00 0.00 0.00 0.00 0.01 0.01 0.01 0.01 0.01 0.01 0.01 0.01 0.01 0.01 0.00 0.00 0.00 0.01 0.01 0.02 0.02 0.01 0.01 0.00 0.00 0.00
0.00 0.00 0.00 0.00 0.00 0.00 0.00 0.00 0.00 0.00 0.00 0.00 0.00 0.00 0.00 0.00 0.00 0.00 0.00 0.00 0.00 0.00 0.00 0.00 0.00 0.00 0.01 0.01 0.01 0.01 0.01 0.00 0.00 0.01 0.00 0.00 0.01 0.00 0.01 0.01 0.01 0.02 0.03 0.02 0.01 0.01 0.00 0.00 0.00
0.00 0.00 0.00 0.00 0.00 0.00 0.00 0.00 0.00 0.00 0.00 0.00 0.00 0.00 0.00 0.00 0.00 0.00 0.00 0.00 0.00 0.00 0.00 0.00 0.00 0.00 0.00 0.01 0.01 0.01 0.00 0.00 0.00 0.00 0.00 0.00 0.00 0.00 0.01 0.02 0.02 0.05 0.05 0.03 0.01 0.01 0.00 0.00 0.00
0.00 0.00 0.00 0.00 0.00 0.00 0.00 0.00 0.00 0.00 0.00 0.00 0.00 0.00 0.00 0.00 0.00 0.00 0.00 0.00 0.00 0.00 0.00 0.00 0.00 0.00 0.00 0.00 0.00 0.00 0.00 0.00 0.00 0.00 0.00 0.00 0.00 0.01 0.02 0.02 0.04 0.08 0.06 0.04 0.03 0.02 0.01 0.01 0.00
0.00 0.00 0.00 0.00 0.00 0.00 0.00 0.00 0.00 0.00 0.00 0.00 0.00 0.00 0.00 0.00 0.00 0.00 0.00 0.00 0.00 0.00 0.00 0.00 0.00 0.00 0.00 0.00 0.00 0.00 0.00 0.00 0.00 0.00 0.00 0.00 0.01 0.01 0.02 0.02 0.06 0.07 0.06 0.05 0.05 0.05 0.03 0.01 0.01
0.00 0.00 0.00 0.00 0.00 0.00 0.00 0.00 0.00 0.00 0.00 0.00 0.00 0.00 0.00 0.00 0.00 0.00 0.00 0.00 0.01 0.01 0.00 0.00 0.00 0.00 0.00 0.00 0.00 0.00 0.00 0.01 0.01 0.01 0.01 0.01 0.02 0.03 0.04 0.06 0.09 0.09 0.08 0.07 0.06 0.05 0.05 0.05 0.05
0.00 0.00 0.00 0.00 0.00 0.00 0.00 0.00 0.00 0.00 0.00 0.00 0.00 0.00 0.00 0.00 0.00 0.00 0.00 0.00 0.01 0.01 0.00 0.00 0.00 0.00 0.00 0.00 0.00 0.01 0.01 0.01 0.01 0.02 0.03 0.03 0.04 0.06 0.07 0.09 0.11 0.12 0.12 0.11 0.10 0.08 0.08 0.07 0.07
0.00 0.00 0.00 0.00 0.00 0.00 0.00 0.00 0.00 0.00 0.00 0.00 0.00 0.00 0.00 0.00 0.00 0.00 0.01 0.00 0.01 0.01 0.00 0.00 0.00 0.00 0.01 0.01 0.01 0.01 0.02 0.02 0.03 0.04 0.05 0.06 0.11 0.14 0.15 0.17 0.17 0.16 0.17 0.17 0.15 0.13 0.11 0.09 0.07
0.00 0.00 0.00 0.00 0.00 0.00 0.00 0.00 0.00 0.00 0.00 0.00 0.00 0.00 0.00 0.00 0.00 0.00 0.00 0.00 0.00 0.00 0.00 0.01 0.01 0.01 0.01 0.02 0.04 0.04 0.04 0.04 0.05 0.06 0.08 0.12 0.18 0.24 0.28 0.28 0.28 0.26 0.27 0.22 0.19 0.17 0.15 0.12 0.09
0.00 0.00 0.00 0.00 0.00 0.00 0.00 0.00 0.00 0.00 0.00 0.00 0.00 0.00 0.00 0.00 0.00 0.00 0.00 0.00 0.01 0.01 0.00 0.01 0.01 0.02 0.04 0.06 0.08 0.09 0.08 0.07 0.08 0.11 0.14 0.18 0.22 0.28 0.34 0.34 0.34 0.33 0.31 0.28 0.26 0.24 0.19 0.14 0.09
0.00 0.00 0.00 0.00 0.00 0.00 0.00 0.00 0.01 0.00 0.00 0.00 0.00 0.00 0.00 0.00 0.00 0.00 0.00 0.00 0.01 0.01 0.01 0.01 0.02 0.03 0.05 0.07 0.09 0.10 0.11 0.13 0.17 0.24 0.30 0.34 0.36 0.37 0.38 0.35 0.30 0.29 0.29 0.27 0.27 0.25 0.17 0.12 0.07
0.00 0.00 0.00 0.00 0.00 0.00 0.00 0.00 0.01 0.01 0.01 0.01 0.01 0.01 0.01 0.01 0.01 0.00 0.00 0.01 0.01 0.02 0.02 0.03 0.05 0.06 0.09 0.10 0.12 0.13 0.14 0.20 0.28 0.37 0.41 0.39 0.34 0.28 0.27 0.26 0.25 0.26 0.25 0.22 0.21 0.17 0.10 0.07 0.05
0.00 0.00 0.00 0.00 0.00 0.00 0.00 0.01 0.02 0.03 0.02 0.02 0.02 0.02 0.03 0.02 0.02 0.02 0.01 0.01 0.02 0.02 0.02 0.04 0.07 0.10 0.10 0.11 0.12 0.14 0.21 0.29 0.35 0.36 0.36 0.30 0.25 0.20 0.19 0.22 0.22 0.21 0.21 0.17 0.12 0.08 0.05 0.04 0.03
0.00 0.00 0.00 0.00 0.00 0.00 0.01 0.02 0.04 0.04 0.03 0.02 0.02 0.03 0.04 0.03 0.03 0.04 0.04 0.03 0.04 0.05 0.06 0.07 0.09 0.12 0.11 0.12 0.14 0.19 0.25 0.32 0.37 0.38 0.35 0.31 0.26 0.20 0.17 0.15 0.15 0.15 0.13 0.09 0.06 0.04 0.03 0.02 0.02
0.00 0.00 0.00 0.00 0.00 0.00 0.02 0.03 0.05 0.04 0.02 0.02 0.02 0.03 0.03 0.04 0.04 0.04 0.04 0.04 0.04 0.05 0.06 0.07 0.10 0.12 0.11 0.14 0.15 0.20 0.26 0.34 0.39 0.40 0.38 0.34 0.28 0.22 0.18 0.15 0.13 0.09 0.06 0.05 0.04 0.04 0.03 0.02 0.01
0.00 0.00 0.00 0.00 0.00 0.01 0.03 0.04 0.06 0.05 0.03 0.02 0.02 0.02 0.03 0.03 0.03 0.04 0.03 0.03 0.04 0.05 0.06 0.08 0.11 0.13 0.14 0.17 0.19 0.23 0.29 0.34 0.37 0.36 0.31 0.26 0.24 0.20 0.15 0.11 0.08 0.07 0.06 0.05 0.03 0.03 0.02 0.02 0.01
0.00 0.00 0.00 0.00 0.00 0.01 0.02 0.04 0.06 0.06 0.03 0.02 0.01 0.02 0.02 0.03 0.03 0.04 0.04 0.03 0.04 0.04 0.05 0.08 0.12 0.14 0.16 0.17 0.18 0.19 0.21 0.23 0.24 0.24 0.22 0.16 0.14 0.12 0.10 0.09 0.07 0.06 0.05 0.04 0.04 0.03 0.02 0.02 0.01
0.00 0.00 0.00 0.00 0.00 0.01 0.02 0.04 0.06 0.07 0.04 0.02 0.01 0.02 0.02 0.02 0.02 0.03 0.03 0.03 0.03 0.02 0.03 0.04 0.07 0.09 0.10 0.11 0.12 0.12 0.13 0.15 0.15 0.16 0.16 0.13 0.11 0.10 0.10 0.09 0.09 0.08 0.06 0.05 0.05 0.05 0.04 0.03 0.02
0.00 0.00 0.00 0.00 0.00 0.00 0.02 0.03 0.04 0.06 0.06 0.03 0.02 0.01 0.01 0.02 0.02 0.02 0.02 0.02 0.02 0.02 0.02 0.02 0.03 0.04 0.05 0.06 0.07 0.09 0.09 0.11 0.11 0.11 0.11 0.10 0.10 0.10 0.10 0.10 0.10 0.09 0.07 0.06 0.05 0.05 0.05 0.04 0.03
MSLP
1011.73 1011.98 1012.32 1012.65 1012.89 1012.95 1012.83 1012.55 1012.16 1011.76 1011.42 1011.19 1011.09 1011.09 1011.14 1011.17 1011.14 1011.04 1010.91 1010.80 1010.78 1010.93 1011.28 1011.80 1012.46 1013.16 1013.81 1014.36 1014.76 1015.02 1015.20 1015.38 1015.60 1015.93 1016.35 1016.83 1017.31 1017.72 1018.01 1018.16 1018.18 1018.13 1018.06 1018.04 1018.12 1018.28 1018.51 1018.76 1018.97
1011.82 1012.12 1012.48 1012.81 1013.01 1013.02 1012.84 1012.48 1012.01 1011.52 1011.10 1010.79 1010.62 1010.57 1010.59 1010.62 1010.63 1010.60 1010.55 1010.54 1010.64 1010.88 1011.31 1011.90 1012.60 1013.33 1014.00 1014.56 1014.98 1015.27 1015.48 1015.67 1015.91 1016.24 1016.64 1017.10 1017.54 1017.91 1018.16 1018.28 1018.30 1018.26 1018.23 1018.25 1018.37 1018.57 1018.82 1019.07 1019.25
1011.97 1012.29 1012.64 1012.93 1013.08 1013.03 1012.78 1012.35 1011.82 1011.28 1010.80 1010.45 1010.24 1010.16 1010.17 1010.22 1010.27 1010.31 1010.34 1010.43 1010.61 1010.94 1011.44 1012.07 1012.81 1013.56 1014.25 1014.83 1015.27 1015.58 1015.82 1016.03 1016.27 1016.58 1016.95 1017.35 1017.73 1018.05 1018.26 1018.37 1018.39 1018.39 1018.41 1018.49 1018.66 1018.90 1019.16 1019.39 1019.54
1012.15 1012.46 1012.78 1013.01 1013.09 1012.97 1012.66 1012.19 1011.62 1011.05 1010.56 1010.19 1009.98 1009.90 1009.92 1010.00 1010.10 1010.20 1010.31 1010.47 1010.73 1011.12 1011.66 1012.32 1013.07 1013.83 1014.53 1015.13 1015.59 1015.93 1016.19 1016.41 1016.64 1016.92 1017.24 1017.58 1017.90 1018.16 1018.34 1018.44 1018.50 1018.54 1018.63 1018.78 1019.00 1019.27 1019.54 1019.74 1019.84
1012.31 1012.60 1012.86 1013.02 1013.03 1012.85 1012.49 1011.99 1011.42 1010.85 1010.37 1010.02 1009.83 1009.78 1009.83 1009.95 1010.09 1010.25 1010.42 1010.64 1010.95 1011.38 1011.93 1012.60 1013.35 1014.10 1014.80 1015.40 1015.88 1016.24 1016.52 1016.75 1016.98 1017.24 1017.51 1017.80 1018.06 1018.28 1018.44 1018.54 1018.63 1018.73 1018.88 1019.09 1019.36 1019.64 1019.91 1020.08 1020.13
1012.44 1012.68 1012.87 1012.96 1012.90 1012.67 1012.28 1011.78 1011.22 1010.68 1010.24 1009.92 1009.77 1009.75 1009.84 1010.00 1010.20 1010.41 1010.63 1010.90 1011.24 1011.67 1012.22 1012.87 1013.58 1014.30 1014.98 1015.58 1016.07 1016.45 1016.76 1017.01 1017.25 1017.49 1017.74 1017.98 1018.21 1018.40 1018.54 1018.66 1018.77 1018.92 1019.12 1019.37 1019.66 1019.96 1020.20 1020.34 1020.36
1012.49 1012.67 1012.79 1012.81 1012.70 1012.44 1012.04 1011.56 1011.03 1010.54 1010.14 1009.87 1009.75 1009.77 1009.91 1010.11 1010.35 1010.60 1010.86 1011.16 1011.51 1011.94 1012.45 1013.06 1013.71 1014.38 1015.03 1015.60 1016.10 1016.50 1016.84 1017.12 1017.39 1017.64 1017.88 1018.11 1018.32 1018.49 1018.63 1018.76 1018.89 1019.07 1019.29 1019.55 1019.85 1020.13 1020.34 1020.45 1020.43
1012.48 1012.60 1012.66 1012.62 1012.47 1012.19 1011.81 1011.35 1010.87 1010.42 1010.06 1009.84 1009.75 1009.80 1009.96 1010.20 1010.47 1010.76 1011.06 1011.37 1011.72 1012.13 1012.60 1013.14 1013.73 1014.33 1014.92 1015.47 1015.96 1016.38 1016.75 1017.08 1017.38 1017.66 1017.92 1018.16 1018.36 1018.53 1018.67 1018.80 1018.94 1019.12 1019.33 1019.59 1019.85 1020.09 1020.27 1020.34 1020.30
1012.43 1012.49 1012.49 1012.41 1012.24 1011.96 1011.60 1011.18 1010.74 1010.33 1010.00 1009.80 1009.73 1009.79 1009.96 1010.22 1010.52 1010.84 1011.17 1011.50 1011.85 1012.23 1012.65 1013.12 1013.63 1014.16 1014.68 1015.19 1015.67 1016.10 1016.50 1016.87 1017.22 1017.54 1017.83 1018.09 1018.31 1018.49 1018.63 1018.76 1018.89 1019.04 1019.23 1019.44 1019.66 1019.85 1019.98 1020.02 1019.96
1012.36 1012.37 1012.33 1012.23 1012.04 1011.78 1011.44 1011.05 1010.64 1010.25 1009.94 1009.73 1009.66 1009.71 1009.88 1010.14 1010.47 1010.82 1011.17 1011.52 1011.88 1012.24 1012.62 1013.02 1013.45 1013.90 1014.36 1014.82 1015.27 1015.71 1016.13 1016.54 1016.93 1017.29 1017.63 1017.92 1018.16 1018.35 1018.50 1018.62 1018.73 1018.86 1019.00 1019.15 1019.31 1019.44 1019.52 1019.53 1019.48
1012.30 1012.27 1012.20 1012.08 1011.89 1011.64 1011.32 1010.95 1010.56 1010.17 1009.85 1009.62 1009.51 1009.54 1009.69 1009.95 1010.28 1010.66 1011.05 1011.43 1011.80 1012.16 1012.52 1012.88 1013.25 1013.63 1014.03 1014.44 1014.86 1015.28 1015.71 1016.14 1016.55 1016.96 1017.32 1017.65 1017.92 1018.13 1018.29 1018.41 1018.50 1018.60 1018.69 1018.79 1018.88 1018.96 1018.99 1018.98 1018.93
1012.27 1012.21 1012.11 1011.97 1011.78 1011.53 1011.22 1010.85 1010.45 1010.05 1009.69 1009.41 1009.26 1009.24 1009.37 1009.62 1009.96 1010.37 1010.80 1011.23 1011.64 1012.02 1012.38 1012.72 1013.06 1013.40 1013.75 1014.11 1014.49 1014.89 1015.30 1015.73 1016.15 1016.57 1016.96 1017.31 1017.61 1017.85 1018.03 1018.16 1018.26 1018.33 1018.39 1018.45 1018.49 1018.52 1018.52 1018.50 1018.45
1012.27 1012.17 1012.04 1011.87 1011.67 1011.41 1011.09 1010.70 1010.28 1009.84 1009.43 1009.10 1008.89 1008.82 1008.91 1009.15 1009.51 1009.95 1010.43 1010.91 1011.38 1011.82 1012.21 1012.58 1012.91 1013.24 1013.56 1013.88 1014.22 1014.59 1014.97 1015.37 1015.78 1016.20 1016.59 1016.96 1017.29 1017.56 1017.78 1017.94 1018.05 1018.13 1018.18 1018.21 1018.23 1018.22 1018.20 1018.18 1018.15
1012.28 1012.13 1011.96 1011.76 1011.52 1011.23 1010.88 1010.47 1010.00 1009.52 1009.05 1008.67 1008.40 1008.29 1008.35 1008.57 1008.94 1009.41 1009.95 1010.50 1011.04 1011.55 1012.02 1012.43 1012.80 1013.14 1013.46 1013.77 1014.08 1014.40 1014.74 1015.10 1015.48 1015.87 1016.26 1016.64 1017.00 1017.31 1017.58 1017.79 1017.94 1018.05 1018.11 1018.14 1018.15 1018.13 1018.11 1018.09 1018.09
1012.27 1012.08 1011.85 1011.60 1011.32 1010.99 1010.60 1010.15 1009.64 1009.11 1008.60 1008.17 1007.85 1007.70 1007.73 1007.94 1008.32 1008.82 1009.40 1010.02 1010.64 1011.23 1011.78 1012.27 1012.71 1013.09 1013.44 1013.75 1014.04 1014.33 1014.63 1014.94 1015.27 1015.63 1016.00 1016.38 1016.76 1017.12 1017.44 1017.71 1017.93 1018.08 1018.18 1018.23 1018.25 1018.24 1018.22 1018.22 1018.24
1012.24 1011.98 1011.70 1011.40 1011.07 1010.70 1010.27 1009.78 1009.25 1008.69 1008.15 1007.69 1007.35 1007.17 1007.17 1007.37 1007.74 1008.25 1008.86 1009.52 1010.20 1010.87 1011.49 1012.07 1012.58 1013.03 1013.42 1013.76 1014.06 1014.33 1014.58 1014.85 1015.13 1015.45 1015.80 1016.18 1016.58 1016.99 1017.37 1017.71 1017.99 1018.20 1018.35 1018.43 1018.47 1018.47 1018.47 1018.48 1018.53
1012.16 1011.85 1011.52 1011.18 1010.81 1010.41 1009.96 1009.46 1008.92 1008.36 1007.83 1007.36 1007.02 1006.83 1006.81 1006.98 1007.33 1007.82 1008.42 1009.08 1009.79 1010.50 1011.18 1011.82 1012.41 1012.92 1013.37 1013.75 1014.06 1014.33 1014.56 1014.79 1015.04 1015.32 1015.65 1016.03 1016.45 1016.89 1017.32 1017.72 1018.07 1018.34 1018.53 1018.65 1018.71 1018.73 1018.74 1018.77 1018.84
1012.04 1011.70 1011.35 1010.98 1010.61 1010.21 1009.77 1009.30 1008.79 1008.27 1007.77 1007.34 1007.01 1006.82 1006.78 1006.92 1007.21 1007.64 1008.19 1008.81 1009.48 1010.18 1010.88 1011.55 1012.17 1012.74 1013.24 1013.66 1014.00 1014.28 1014.51 1014.72 1014.94 1015.20 1015.52 1015.89 1016.32 1016.79 1017.27 1017.72 1018.11 1018.43 1018.66 1018.81 1018.89 1018.92 1018.94 1018.98 1019.07
1011.88 1011.54 1011.20 1010.86 1010.52 1010.16 1009.78 1009.37 1008.94 1008.50 1008.08 1007.71 1007.43 1007.25 1007.20 1007.28 1007.50 1007.83 1008.27 1008.79 1009.37 1009.99 1010.64 1011.28 1011.91 1012.50 1013.02 1013.47 1013.84 1014.13 1014.38 1014.59 1014.81 1015.06 1015.37 1015.75 1016.19 1016.67 1017.17 1017.65 1018.08 1018.42 1018.68 1018.84 1018.93 1018.97 1019.00 1019.05 1019.15
1011.70 1011.40 1011.11 1010.84 1010.57 1010.31 1010.03 1009.74 1009.44 1009.12 1008.81 1008.54 1008.31 1008.16 1008.09 1008.12 1008.23 1008.43 1008.72 1009.08 1009.51 1009.99 1010.52 1011.09 1011.66 1012.22 1012.73 1013.19 1013.58 1013.90 1014.16 1014.40 1014.63 1014.89 1015.20 1015.58 1016.03 1016.52 1017.02 1017.51 1017.94 1018.30 1018.56 1018.73 1018.83 1018.88 1018.92 1018.97 1019.08
1011.49 1011.26 1011.06 1010.90 1010.75 1010.63 1010.51 1010.38 1010.24 1010.08 1009.92 1009.76 1009.62 1009.51 1009.42 1009.38 1009.38 1009.43 1009.54 1009.70 1009.94 1010.24 1010.60 1011.03 1011.49 1011.98 1012.45 1012.88 1013.28 1013.61 1013.90 1014.16 1014.41 1014.69 1015.02 1015.41 1015.85 1016.34 1016.84 1017.32 1017.75 1018.09 1018.36 1018.53 1018.64 1018.70 1018.74 1018.81 1018.93
1011.24 1011.11 1011.03 1011.00 1011.01 1011.05 1011.11 1011.17 1011.23 1011.26 1011.26 1011.24 1011.19 1011.12 1011.04 1010.94 1010.84 1010.74 1010.66 1010.62 1010.64 1010.74 1010.91 1011.16 1011.48 1011.85 1012.24 1012.63 1013.00 1013.33 1013.64 1013.93 1014.21 1014.52 1014.87 1015.27 1015.72 1016.19 1016.68 1017.14 1017.55 1017.89 1018.14 1018.32 1018.44 1018.52 1018.59 1018.68 1018.81
1010.95 1010.92 1010.95 1011.06 1011.23 1011.46 1011.71 1011.98 1012.23 1012.45 1012.63 1012.75 1012.81 1012.81 1012.74 1012.60 1012.42 1012.20 1011.96 1011.75 1011.57 1011.47 1011.44 1011.51 1011.67 1011.91 1012.20 1012.51 1012.84 1013.17 1013.48 1013.79 1014.11 1014.45 1014.83 1015.24 1015.69 1016.15 1016.62 1017.06 1017.45 1017.78 1018.03 1018.22 1018.36 1018.47 1018.58 1018.69 1018.84
1010.62 1010.65 1010.79 1011.02 1011.35 1011.74 1012.18 1012.64 1013.08 1013.49 1013.84 1014.11 1014.28 1014.35 1014.31 1014.18 1013.95 1013.65 1013.31 1012.96 1012.64 1012.38 1012.19 1012.10 1012.11 1012.22 1012.40 1012.63 1012.91 1013.21 1013.52 1013.85 1014.20 1014.57 1014.97 1015.39 1015.84 1016.30 1016.75 1017.17 1017.54 1017.86 1018.12 1018.33 1018.50 1018.64 1018.79 1018.94 1019.10
1010.24 1010.32 1010.53 1010.85 1011.29 1011.83 1012.42 1013.05 1013.67 1014.24 1014.75 1015.15 1015.43 1015.59 1015.61 1015.50 1015.28 1014.96 1014.58 1014.17 1013.77 1013.41 1013.12 1012.92 1012.82 1012.81 1012.89 1013.05 1013.27 1013.54 1013.84 1014.18 1014.55 1014.94 1015.36 1015.80 1016.26 1016.71 1017.14 1017.55 1017.91 1018.22 1018.49 1018.71 1018.91 1019.10 1019.28 1019.46 1019.64
1009.88 1009.96 1010.19 1010.57 1011.09 1011.72 1012.44 1013.20 1013.95 1014.67 1015.30 1015.83 1016.22 1016.47 1016.56 1016.52 1016.34 1016.06 1015.71 1015.31 1014.90 1014.52 1014.19 1013.94 1013.77 1013.69 1013.71 1013.80 1013.97 1014.20 1014.49 1014.83 1015.21 1015.62 1016.06 1016.52 1016.97 1017.42 1017.84 1018.23 1018.58 1018.88 1019.15 1019.39 1019.61 1019.82 1020.03 1020.23 1020.42
1009.59 1009.64 1009.86 1010.25 1010.80 1011.49 1012.29 1013.14 1014.00 1014.83 1015.57 1016.19 1016.68 1017.02 1017.20 1017.24 1017.14 1016.94 1016.67 1016.34 1016.00 1015.67 1015.37 1015.12 1014.95 1014.84 1014.82 1014.88 1015.01 1015.21 1015.48 1015.81 1016.20 1016.62 1017.07 1017.53 1017.99 1018.43 1018.85 1019.22 1019.55 1019.84 1020.09 1020.33 1020.55 1020.76 1020.98 1021.18 1021.36
1009.43 1009.44 1009.62 1009.99 1010.55 1011.27 1012.11 1013.03 1013.96 1014.86 1015.68 1016.39 1016.95 1017.36 1017.63 1017.76 1017.76 1017.66 1017.50 1017.29 1017.05 1016.82 1016.61 1016.42 1016.28 1016.20 1016.17 1016.22 1016.33 1016.51 1016.77 1017.08 1017.46 1017.89 1018.34 1018.80 1019.26 1019.69 1020.08 1020.43 1020.74 1021.00 1021.23 1021.44 1021.64 1021.83 1022.02 1022.19 1022.35
1009.48 1009.44 1009.58 1009.93 1010.47 1011.20 1012.06 1013.01 1014.00 1014.95 1015.83 1016.58 1017.20 1017.68 1018.01 1018.21 1018.30 1018.31 1018.26 1018.18 1018.07 1017.96 1017.86 1017.77 1017.71 1017.67 1017.68 1017.73 1017.84 1018.01 1018.25 1018.55 1018.92 1019.33 1019.77 1020.22 1020.66 1021.08 1021.45 1021.76 1022.03 1022.25 1022.43 1022.60 1022.74 1022.88 1023.02 1023.14 1023.25
1009.76 1009.69 1009.81 1010.13 1010.66 1011.38 1012.26 1013.23 1014.24 1015.23 1016.14 1016.94 1017.59 1018.10 1018.47 1018.72 1018.88 1018.97 1019.02 1019.05 1019.06 1019.07 1019.09 1019.11 1019.13 1019.16 1019.21 1019.29 1019.40 1019.57 1019.79 1020.08 1020.42 1020.80 1021.22 1021.65 1022.06 1022.44 1022.78 1023.06 1023.28 1023.44 1023.57 1023.66 1023.74 1023.81 1023.87 1023.92 1023.96
Thickness
5781 5787 5793 5793 5786 5783 5782 5787 5795 5797 5802 5811 5814 5811 5808 5806 5799 5791 5808 5817 5814 5808 5799 5788 5784 5782 5780 5777 5775 5772 5769 5766 5763 5760 5758 5755 5753 5752 5751 5750 5748 5747 5745 5744 5743 5742 5741 5740 5739
5783 5786 5786 5784 5772 5768 5775 5788 5790 5795 5803 5812 5814 5810 5806 5806 5807 5804 5808 5810 5808 5803 5795 5788 5780 5778 5776 5774 5771 5769 5766 5763 5760 5757 5754 5752 5750 5749 5748 5746 5745 5743 5742 5741 5739 5738 5737 5736 5735
5780 5782 5776 5773 5767 5768 5772 5785 5790 5802 5810 5808 5808 5811 5807 5803 5803 5804 5807 5806 5803 5797 5792 5784 5777 5774 5772 5770 5768 5765 5763 5760 5757 5754 5751 5749 5747 5746 5745 5743 5742 5740 5738 5737 5736 5735 5733 5732 5731
5775 5773 5771 5762 5762 5779 5783 5787 5792 5797 5804 5808 5807 5804 5808 5807 5807 5808 5806 5803 5799 5794 5788 5779 5773 5770 5768 5766 5764 5762 5759 5756 5753 5750 5748 5746 5744 5743 5742 5741 5739 5737 5736 5734 5733 5731 5730 5729 5727
5770 5764 5755 5754 5764 5782 5787 5789 5792 5791 5795 5802 5803 5800 5800 5805 5810 5807 5802 5800 5795 5791 5785 5776 5769 5766 5764 5762 5760 5758 5755 5753 5750 5747 5745 5743 5742 5741 5740 5738 5737 5735 5734 5732 5730 5729 5727 5726 5725
5757 5758 5746 5749 5763 5778 5783 5788 5789 5790 5795 5801 5801 5799 5798 5803 5804 5802 5800 5796 5794 5788 5782 5772 5765 5762 5760 5758 5756 5754 5752 5750 5748 5745 5742 5741 5740 5739 5738 5736 5735 5734 5732 5731 5729 5727 5725 5723 5722
5749 5749 5747 5755 5762 5770 5779 5787 5784 5786 5790 5798 5804 5797 5796 5799 5801 5800 5797 5794 5791 5786 5780 5770 5764 5760 5757 5755 5753 5752 5750 5748 5746 5743 5740 5738 5737 5737 5736 5735 5733 5732 5730 5728 5727 5725 5723 5721 5720
5752 5748 5745 5753 5757 5766 5782 5782 5786 5785 5788 5803 5804 5795 5795 5796 5799 5797 5794 5790 5787 5783 5778 5771 5767 5762 5758 5754 5751 5749 5748 5746 5744 5741 5739 5737 5736 5735 5734 5734 5732 5730 5728 5726 5725 5723 5721 5719 5717
5742 5732 5739 5751 5756 5764 5776 5771 5781 5791 5791 5797 5803 5802 5805 5802 5799 5792 5787 5783 5781 5778 5776 5772 5768 5764 5761 5757 5751 5748 5745 5744 5742 5740 5737 5736 5737 5737 5735 5734 5730 5729 5727 5725 5723 5721 5720 5718 5716
5728 5727 5742 5757 5762 5763 5766 5765 5774 5778 5781 5789 5796 5800 5801 5798 5794 5788 5783 5779 5777 5774 5774 5773 5771 5766 5763 5760 5753 5750 5747 5745 5744 5743 5739 5739 5740 5738 5738 5733 5730 5728 5726 5724 5722 5721 5719 5718 5720
5724 5726 5742 5748 5750 5753 5756 5761 5770 5767 5770 5786 5792 5795 5794 5793 5792 5789 5786 5782 5780 5776 5774 5775 5771 5768 5766 5762 5756 5754 5752 5748 5746 5744 5741 5740 5739 5738 5737 5734 5731 5729 5727 5728 5723 5722 5724 5722 5721
5714 5722 5730 5736 5744 5745 5749 5756 5761 5766 5775 5795 5800 5801 5796 5793 5793 5793 5789 5786 5783 5778 5775 5775 5772 5768 5766 5764 5760 5756 5754 5751 5749 5745 5742 5741 5739 5738 5738 5735 5736 5733 5731 5729 5728 5726 5724 5721 5719
5705 5714 5722 5730 5736 5742 5746 5750 5755 5765 5783 5793 5798 5799 5797 5797 5797 5797 5795 5790 5786 5780 5776 5775 5772 5768 5764 5761 5759 5757 5755 5753 5750 5746 5742 5741 5740 5738 5737 5735 5733 5733 5732 5729 5726 5726 5722 5720 5718
5708 5713 5719 5729 5736 5741 5740 5748 5754 5765 5781 5786 5791 5796 5800 5800 5799 5797 5793 5788 5785 5780 5776 5775 5770 5766 5762 5759 5757 5756 5755 5751 5751 5747 5744 5741 5740 5738 5736 5733 5731 5731 5729 5728 5726 5725 5721 5719 5718
5705 5704 5714 5726 5733 5740 5741 5739 5753 5771 5779 5781 5789 5795 5799 5800 5800 5796 5793 5788 5785 5780 5776 5772 5768 5765 5760 5758 5756 5755 5754 5751 5750 5748 5744 5741 5739 5737 5734 5733 5730 5728 5726 5724 5722 5721 5719 5717 5714
5699 5699 5705 5725 5732 5738 5732 5736 5762 5775 5775 5777 5786 5792 5794 5796 5798 5796 5793 5788 5785 5780 5774 5770 5768 5764 5760 5757 5755 5755 5753 5751 5749 5747 5744 5740 5738 5735 5732 5731 5729 5725 5723 5721 5720 5719 5717 5715 5712
5691 5696 5704 5716 5729 5735 5732 5742 5758 5769 5771 5773 5780 5786 5788 5789 5792 5793 5792 5787 5783 5779 5774 5769 5767 5764 5760 5756 5754 5753 5751 5750 5748 5746 5743 5740 5736 5733 5730 5729 5726 5722 5719 5718 5717 5715 5712 5709 5706
5687 5695 5699 5708 5722 5729 5730 5738 5749 5761 5766 5769 5774 5779 5781 5782 5785 5788 5787 5785 5781 5777 5772 5768 5764 5761 5758 5755 5752 5750 5749 5748 5746 5744 5742 5738 5734 5730 5727 5725 5722 5718 5716 5713 5710 5706 5704 5702 5699
5686 5689 5694 5705 5719 5722 5725 5729 5738 5749 5756 5760 5765 5771 5774 5776 5780 5781 5780 5780 5777 5773 5769 5765 5763 5760 5756 5753 5750 5747 5745 5744 5744 5742 5739 5734 5730 5726 5723 5721 5717 5713 5710 5708 5704 5700 5696 5694 5693
5679 5682 5691 5703 5714 5717 5719 5722 5730 5737 5740 5745 5751 5757 5762 5765 5767 5770 5772 5773 5772 5769 5767 5764 5761 5759 5756 5754 5751 5748 5745 5743 5742 5739 5734 5729 5725 5720 5717 5714 5712 5709 5705 5701 5698 5694 5690 5687 5685
5675 5681 5691 5696 5707 5715 5715 5712 5719 5724 5731 5734 5740 5744 5749 5752 5754 5758 5760 5763 5764 5763 5763 5762 5760 5758 5756 5753 5748 5744 5739 5737 5734 5731 5728 5724 5720 5715 5710 5707 5705 5703 5700 5696 5692 5688 5685 5681 5678
5673 5688 5691 5693 5697 5707 5712 5707 5708 5713 5715 5718 5722 5728 5733 5737 5742 5746 5750 5752 5754 5757 5758 5757 5755 5754 5752 5748 5744 5740 5735 5731 5730 5724 5720 5717 5714 5709 5706 5702 5698 5695 5693 5690 5687 5683 5681 5677 5673
5681 5693 5692 5694 5697 5701 5710 5712 5701 5710 5702 5702 5707 5712 5717 5723 5728 5732 5737 5742 5745 5748 5750 5751 5750 5748 5747 5744 5741 5736 5732 5728 5724 5718 5713 5710 5706 5702 5698 5694 5691 5689 5685 5682 5679 5675 5673 5671 5667
5686 5686 5688 5693 5699 5688 5702 5706 5690 5696 5694 5693 5695 5698 5703 5709 5714 5718 5724 5729 5733 5737 5740 5742 5741 5740 5740 5738 5736 5732 5728 5721 5715 5709 5705 5702 5697 5691 5687 5685 5682 5679 5676 5673 5669 5666 5663 5660 5657
5679 5675 5674 5677 5681 5690 5701 5698 5678 5682 5688 5687 5686 5686 5690 5695 5698 5702 5707 5712 5717 5722 5726 5729 5729 5728 5728 5729 5726 5723 5720 5714 5708 5702 5697 5692 5686 5681 5677 5674 5671 5667 5664 5661 5657 5654 5651 5648 5645
5677 5682 5681 5681 5686 5692 5693 5684 5672 5677 5679 5680 5680 5680 5680 5682 5684 5687 5691 5696 5701 5705 5710 5712 5714 5714 5715 5716 5713 5710 5707 5703 5697 5692 5686 5680 5674 5670 5666 5662 5657 5653 5649 5646 5643 5640 5637 5633 5629
5677 5684 5701 5692 5695 5691 5683 5672 5666 5672 5672 5673 5672 5671 5670 5671 5674 5676 5679 5682 5685 5689 5691 5694 5697 5698 5699 5698 5697 5694 5690 5687 5682 5676 5671 5665 5660 5655 5651 5646 5642 5637 5633 5630 5627 5623 5620 5616 5614
5687 5691 5686 5687 5680 5678 5673 5673 5669 5665 5665 5665 5664 5661 5660 5661 5663 5665 5667 5669 5671 5673 5676 5678 5680 5680 5679 5679 5678 5675 5672 5667 5663 5658 5652 5647 5643 5637 5632 5627 5624 5620 5616 5613 5609 5605 5601 5598 5595
5676 5680 5686 5692 5694 5687 5671 5669 5677 5671 5666 5660 5655 5652 5652 5651 5651 5652 5654 5656 5658 5659 5661 5661 5662 5662 5661 5659 5657 5655 5651 5646 5642 5637 5632 5628 5623 5618 5613 5608 5605 5601 5598 5594 5590 5587 5583 5580 5576
5679 5681 5682 5678 5678 5686 5687 5658 5669 5667 5661 5653 5646 5642 5641 5640 5639 5640 5642 5644 5645 5645 5644 5644 5644 5644 5642 5639 5637 5634 5629 5625 5620 5615 5611 5607 5602 5598 5594 5590 5586 5582 5578 5574 5570 5567 5565 5562 5560